CZ-6A DEB, 54545

Orbit data source: Space-Track

CZ-6A DEB, 54545 is space debris in SSO originally from a launch on Fri, 11 Nov 2022 UTC launched from the Taiyaun Space Center, China (TSC). Debris objects in space refer to the collection of defunct objects orbiting the Earth. Examples of debris include non-operational satellites, rocket bodies, and fragments generated from explosions, collisions, or faulty payload assembly.

Loading next visibility...
Identifier
54545, 2022-151KV
Orbit
SSO
Country
Flag of CNCN / PRC
Related business
Manufacturer
SAST
Mission
Spacecraft
Bus & Motor
Unknown
Mass
Unknown
Launch date (UTC)
2022-11-11 (3 years ago)
Launch vehicle
Unknown
Launch site
Taiyaun Space Center, China (TSC)
Object type
Payload
Rocket body
Debris
Shape & HBR
Unknown shape, 0.1 m
Radar Cross Section
Small (<0.1 m²)

Expand to show TLE details & history
Last TLE update: 20 hours ago

TLE from 20 hours ago
0 CZ-6A DEB
1 54545U 22151KV  25349.94007331  .00000766  00000-0  43438-3 0  9998
2 54545  98.8299 349.9678 0055695  79.4608 281.2831 14.12161342159049
Epoch: 2025-12-15T22:33Z
TLE epoch observation values (Epoch: 2025-12-15T22:33:42.333Z)
Latitude
-0.00013°
Longitude
-73.29°
Altitude
847.221 km
Speed
7.433 km/s
True Right ascension
23h 19m 52s
True Declination
0° 00' 00"
Sunlit
Object was in daylight at epoch
Visualization orbit readout
Latitude
Unknown
Longitude
Unknown
Altitude
Unknown
Speed
Unknown
Apparent Right ascension
Unknown
Apparent Declination
Unknown
Sunlit
N/A
Visualization observer readout
Local Sidereal Time
17:42:40
Azimuth
Unknown
Elevation
Unknown
Doppler factor
Unknown
Orbital elements
Apogee altitude
889.412 km
Perigee altitude
808.907 km
Semi-major axis
7,227.297 km
Eccentricity
0.00557
Inclination
98.8299°
RAAN
349.9678°
Arg. of periapsis
79.4608°
True anomaly
280.65638°
Mean anomaly
281.2831°
Eccentric anomaly
280.96982°
Mean motion
3.53248 °/min
Orbital period
101.91 mins
BSTAR
0.00043438
Loading maneuver chart data...
Computing Atmospheric mass density...
Loading historical data...
Loading historical data...
Loading historical data...
Loading historical data...
Loading historical data...
Loading historical data...
Loading historical data...

Documentation

Showing up to 5 results
|